949  
ASUS46 KSTO 191916  
RWRCA  
 
NORTHERN AND CENTRAL CA REGIONAL WEATHER ROUNDUP  
NATIONAL WEATHER SERVICE SACRAMENTO CA  
1100 AM PDT THU OCT 19 2017  
 
NOTE: FAIR INDICATES FEW OR NO CLOUDS BELOW 12,000 FEET WITH NO  
SIGNIFICANT WEATHER AND/OR S TO VISIBILITY
.  
 
CAZ001-003-191900-  
NORTHWEST AREA  
 
CITY SKY/WX TMP DP RH WIND PRES REMARKS
 
CRESCENT CITY LGT RAIN 59 51 75 S24G31 29.80F  
UKIAH CLOUDY 54 44 69 CALM 29.98S  

 
 
CAZ006-505>513-191900-  
BAY AREA  
 
CITY SKY/WX TMP DP RH WIND PRES REMARKS
 
SANTA ROSA CLOUDY 56 50 80 CALM 29.98S  
SAN RAFAEL N/A 59 MM MM MISG  
NAPA PTSUNNY 61 52 72 SW12 29.98S  
CONCORD FAIR 66 52 60 SW12 29.98F  
OAKLAND CITY N/A MM MM MM MISG  
OAKLAND CLOUDY 58 53 84 SW6 30.01S  
SAN FRAN CITY N/A 58 MM 87 MISG  
SAN FRAN ARPT PTSUNNY 60 52 74 SW6 30.00S  
LIVERMORE CLOUDY 60 52 74 W10 29.99S  
HAYWARD CLOUDY 60 49 66 W7 30.00F  
REDWOOD CITY N/A 62 MM 71 MISG  
MOFFETT ARPT PTSUNNY 61 52 72 VRB3 30.01S  
SAN JOSE ARPT PTSUNNY 61 52 72 CALM 30.00S  

 
CAZ034-037-514>518-191900-  
CENTRAL COAST  
 
CITY SKY/WX TMP DP RH WIND PRES REMARKS
 
WATSONVILLE CLOUDY 58 51 78 VRB3 30.02S  
SALINAS CLOUDY 57 50 77 CALM 30.01F  
MONTEREY CLOUDY 57 51 80 W3 30.02F  
SAN LUIS OBISP FAIR 66 51 58 W12 29.99S  
SANTA MARIA PTSUNNY 61 53 75 W7 30.00F  

 
CAZ015-016-191900-  
NORTHERN SACRAMENTO VALLEY  
 
CITY SKY/WX TMP DP RH WIND PRES REMARKS
 
REDDING CLOUDY 59 45 59 S10 29.92S  
RED BLUFF PTSUNNY 59 47 64 VRB3 29.93F  
OROVILLE CLOUDY 63 49 60 SE12 29.93F  

 
CAZ016>018-191900-  
SOUTHERN SACRAMENTO VALLEY  
 
CITY SKY/WX TMP DP RH WIND PRES REMARKS
 
AUBURN PTSUNNY 61 N/A N/A S13G94 29.97R  
BEALE AFB MOSUNNY 65 50 57 S18 29.91F  
LINCOLN FAIR 63 46 55 SE15 29.93F  
MARYSVILLE PTSUNNY 63 51 65 SE15 29.93F  
SAC INTL ARPT PTSUNNY 61 52 72 S15 29.93S  
MATHER AIRPORT CLOUDY 64 52 63 S13G18 29.95F  
DOWNTOWN SAC N/A 64 MM MM MISG  
SAC EXEC ARPT FAIR 62 53 72 S10G18 29.95S  
VACAVILLE PTSUNNY 66 51 58 S9 29.94S  
TRAVIS AFB PTSUNNY 61 51 70 SW24 29.93S  

 
CAZ019>021-191900-  
SAN JOAQUIN VALLEY  
 
CITY SKY/WX TMP DP RH WIND PRES REMARKS
 
STOCKTON PTSUNNY 65 51 60 VRB5 29.97S  
MODESTO PTSUNNY 65 49 56 NW8 29.96S  
MERCED FAIR 67 44 43 N5 29.95F  
LEMOORE FAIR 71 37 28 NW6 29.97F  
FRESNO FAIR 68 45 43 S8 29.96F HAZE  
HANFORD FAIR 67 43 41 SW3 29.97F HAZE  
PORTERVILLE FAIR 69 41 36 S5 29.98F  
BAKERSFIELD FAIR 71 38 29 CALM 29.98S HAZE  

 
CAZ011-012-071-191900-  
NORTHERN MOUNTAINS  
 
CITY SKY/WX TMP DP RH WIND PRES REMARKS
 
YREKA FAIR 57 31 37 CALM 29.82F  
MOUNT SHASTA PTSUNNY 53 32 44 VRB3 29.92S  
ALTURAS CLOUDY 59 26 28 S14 29.90F  

 
CAZ011-012-071-191900-  
SIERRA NEVADA MTNS  
 
CITY SKY/WX TMP DP RH WIND PRES REMARKS
 
BLUE CANYON CLOUDY 54 26 34 S10 30.07R  
TRUCKEE MOSUNNY 59 32 36 MISG 30.05F  
TAHOE VLY ARPT FAIR 57 29 34 S9G22 30.06F  
MAMMOTH LAKES FAIR 60 24 25 CALM 30.12S  

 
 
 
CLICK HERE TO GO TO PREVIOUS BULLETINS.

The Nexlab CA Page Main Text Page